Regional Weather Roundup
Issued by NWS

Home | Current Version | Previous Version | Text Only | Print | Product List | Glossary Off
Versions: 1 2 3 4 5 6 7 8 9 10 11 12 13 14 15 16 17 18 19 20 21 22 23 24 25 26 27 28 29 30 31 32 33 34 35 36 37 38 39 40 41 42 43 44 45 46 47 48 49 50

000
ASUS43 KOAX 010702
RWRNE

WEATHER ROUNDUP FOR NEBRASKA
NATIONAL WEATHER SERVICE OMAHA NE
100 AM CST SUN FEB 01 2015

NOTES: SATELLITE DATA IS BEING USED TO AUGMENT CLOUD COVER ABOVE
       12000 FEET.
       "FAIR" INDICATES FEW OR NO CLOUDS BELOW 12,000 FEET WITH NO
       SIGNIFICANT WEATHER AND/OR OBSTRUCTIONS TO VISIBILITY.

  * THESE STATIONS DO NOT REPORT WEATHER SUCH AS RAIN...SNOW OR FOG.

NEZ001>004-019>022-054>056-010800-
NEBRASKA PANHANDLE

CITY           SKY/WX    TMP DP  RH WIND       PRES   REMARKS
SCOTTSBLUFF    CLOUDY    25  21  85 N10       30.04R WCI  15
ALLIANCE       CLOUDY    18  15  88 N12       30.03R WCI   5
CHADRON        LGT SNOW  15  12  88 NE10      30.14R FOG     WCI   2
SIDNEY         MIX PCPN  20  17  88 N22G29    29.99R FOG     WCI   3
$$

NEZ057>060-069>072-079>082-010800-
SOUTHWEST NEBRASKA

CITY           SKY/WX    TMP DP  RH WIND       PRES   REMARKS
NORTH PLATTE   CLOUDY    18  14  84 N16G29    29.96R FOG     WCI   3
IMPERIAL       LGT SNOW  20  15  81 N20       29.97R WCI   4
MCCOOK         LGT SNOW  23  19  85 N23       29.92R FOG     WCI   7
$$

NEZ005>010-023>029-035>040-094-010800-
NORTH CENTRAL NEBRASKA

CITY           SKY/WX    TMP DP  RH WIND       PRES   REMARKS
VALENTINE      LGT SNOW  11   7  84 N17       30.11R VSB 3/4 WCI  -6
BROKEN BOW     LGT SNOW  20  16  84 N29       29.93R VSB 3/4 WCI   1
ORD            LGT SNOW  22  18  85 N20G29    29.93R FOG     WCI   7
$$

NEZ041-046>049-061>064-073>077-083>087-010800-
SOUTH CENTRAL NEBRASKA

CITY           SKY/WX    TMP DP  RH WIND       PRES   REMARKS
GRAND ISLAND   LGT SNOW  27  25  92 N22       29.86R FOG     WCI  13
HASTINGS       LGT SNOW  29  26  89 N22       29.82R FOG     WCI  15
KEARNEY *      CLOUDY    25  21  86 N24G31    29.86F WCI   9
$$

NEZ011>018-030>034-042>045-010800-
NORTHEAST NEBRASKA

CITY           SKY/WX    TMP DP  RH WIND       PRES   REMARKS
NORFOLK        LGT SNOW  28  25  88 N17       29.89S VSB 3/4 WCI  16
TEKAMAH        LGT SNOW  33  32  96 NE9       29.87F VSB 1   WCI  25
$$

NEZ050>053-065>068-078-088>093-010800-
SOUTHEAST NEBRASKA

CITY           SKY/WX    TMP DP  RH WIND       PRES   REMARKS
LINCOLN        LGT SNOW  32  31  96 NE8       29.83F FOG     WCI  25
OMAHA EPPLEY   LGT SNOW  33  32  96 NE6       29.85F VSB 3/4 WCI  28
FALLS CITY     LGT SNOW  32  31  96 SE6       29.81F FOG     WCI  26
$$

NEZ044-045-051>053-067-010800-
OMAHA AREA

CITY           SKY/WX    TMP DP  RH WIND       PRES   REMARKS
OMAHA EPPLEY   LGT SNOW  33  32  96 NE6       29.85F VSB 3/4 WCI  28
OFFUTT AFB     LGT SNOW  32  32  98 NE6       29.83F FOG     WCI  27
$$


USA.gov is the U.S. government's official web portal to all federal, state and local government web resources and services.